User: anonymous   Login
Location: Unspecified
(0.0000°N, 0.0000°E)
Time: 19:12:28
(UTC+00:00)
Language:

OBJECT F - Orbit

View from above orbital plane
View from above orbital plane
View from above satellite
View from above satellite

Ground track
Ground track

The orbit data is extracted from the following two-line orbital elements,

1 43116U 18004F   18351.24886506  .00000848  00000-0  39408-4 0  9993
2 43116  97.5183  54.2951 0010286 160.1018 200.0621 15.22707709 51580
Epoch (UTC): 17 December 2018 05:58:21
Eccentricity: 0.0010286
inclination: 97.5183°
perigee height: 490 km
apogee height: 505 km
right ascension of ascending node: 54.2951°
argument of perigee: 160.1018°
revolutions per day: 15.22707709
mean anomaly at epoch: 200.0621°
orbit number at epoch: 5158

The dashed part of the orbit path shows where the satellite is in the earth's shadow,  

DLR